TimeMDT,TemperatureF,Dew PointF,Humidity,Sea Level PressureIn,VisibilityMPH,Wind Direction,Wind SpeedMPH,Gust SpeedMPH,PrecipitationIn,Events,Conditions,WindDirDegrees,DateUTC
12:15 AM,42.8,26.6,53,29.76,10.0,South,9.2,18.4,N/A,,Overcast,190,2013-04-15 06:15:00
12:35 AM,41.0,28.4,61,29.76,10.0,SW,5.8,-,N/A,,Overcast,220,2013-04-15 06:35:00
12:55 AM,41.0,30.2,65,29.76,10.0,Calm,Calm,-,N/A,,Overcast,0,2013-04-15 06:55:00
1:15 AM,37.4,32.0,81,29.75,10.0,Calm,Calm,-,N/A,Rain,Light Rain,0,2013-04-15 07:15:00
1:35 AM,37.4,32.0,81,29.74,10.0,East,5.8,-,N/A,Rain,Light Rain,80,2013-04-15 07:35:00
1:55 AM,37.4,32.0,81,29.72,10.0,South,11.5,17.3,N/A,,Overcast,170,2013-04-15 07:55:00
2:15 AM,41.0,30.2,65,29.69,10.0,South,26.5,36.8,N/A,,Overcast,190,2013-04-15 08:15:00
2:35 AM,41.0,28.4,61,29.72,10.0,SSW,4.6,33.4,N/A,,Overcast,200,2013-04-15 08:35:00
2:55 AM,41.0,26.6,57,29.70,10.0,SSW,19.6,33.4,N/A,,Mostly Cloudy,210,2013-04-15 08:55:00
3:15 AM,42.8,26.6,53,29.70,10.0,SW,11.5,29.9,N/A,,Overcast,220,2013-04-15 09:15:00
3:35 AM,41.0,26.6,57,29.70,10.0,SW,17.3,24.2,N/A,,Overcast,220,2013-04-15 09:35:00
3:55 AM,41.0,26.6,57,29.69,10.0,SSE,6.9,24.2,N/A,,Overcast,160,2013-04-15 09:55:00
4:15 AM,41.0,28.4,61,29.70,10.0,West,4.6,-,N/A,,Mostly Cloudy,260,2013-04-15 10:15:00
4:35 AM,41.0,26.6,57,29.70,10.0,SW,23.0,36.8,N/A,,Scattered Clouds,220,2013-04-15 10:35:00
4:55 AM,41.0,26.6,57,29.70,10.0,SSW,25.3,38.0,N/A,,Scattered Clouds,210,2013-04-15 10:55:00
5:15 AM,41.0,26.6,57,29.70,10.0,SW,15.0,32.2,N/A,,Scattered Clouds,230,2013-04-15 11:15:00
5:35 AM,41.0,26.6,57,29.70,10.0,NNE,3.5,-,N/A,,Scattered Clouds,30,2013-04-15 11:35:00
5:55 AM,37.4,26.6,65,29.71,10.0,Calm,Calm,-,N/A,,Scattered Clouds,0,2013-04-15 11:55:00
6:15 AM,37.4,26.6,65,29.71,10.0,WSW,11.5,23.0,N/A,,Scattered Clouds,250,2013-04-15 12:15:00
6:35 AM,39.2,26.6,61,29.71,10.0,South,13.8,-,N/A,,Clear,170,2013-04-15 12:35:00
6:55 AM,39.2,26.6,61,29.71,10.0,SSW,16.1,26.5,N/A,,Clear,200,2013-04-15 12:55:00
7:15 AM,41.0,26.6,57,29.71,10.0,SSW,17.3,25.3,N/A,,Scattered Clouds,200,2013-04-15 13:15:00
7:35 AM,37.4,28.4,70,29.73,10.0,SSW,6.9,-,N/A,,Scattered Clouds,210,2013-04-15 13:35:00
7:55 AM,37.4,28.4,70,29.73,10.0,SSW,9.2,16.1,N/A,,Mostly Cloudy,210,2013-04-15 13:55:00
8:15 AM,39.2,28.4,65,29.73,10.0,South,8.1,17.3,N/A,,Mostly Cloudy,180,2013-04-15 14:15:00
8:35 AM,37.4,30.2,75,29.73,10.0,SSE,10.4,17.3,N/A,,Clear,150,2013-04-15 14:35:00
8:55 AM,39.2,28.4,65,29.73,10.0,SSE,8.1,16.1,N/A,,Clear,160,2013-04-15 14:55:00
9:15 AM,41.0,28.4,61,29.73,10.0,Calm,Calm,-,N/A,,Mostly Cloudy,0,2013-04-15 15:15:00
9:35 AM,41.0,28.4,61,29.73,10.0,South,5.8,17.3,N/A,,Overcast,190,2013-04-15 15:35:00
9:55 AM,41.0,28.4,61,29.73,10.0,SE,3.5,-,N/A,,Mostly Cloudy,140,2013-04-15 15:55:00
10:15 AM,41.0,30.2,65,29.73,10.0,South,13.8,24.2,N/A,,Overcast,190,2013-04-15 16:15:00
10:35 AM,41.0,30.2,65,29.74,10.0,South,4.6,20.7,N/A,,Overcast,190,2013-04-15 16:35:00
10:55 AM,41.0,30.2,65,29.74,10.0,South,11.5,17.3,N/A,,Mostly Cloudy,170,2013-04-15 16:55:00
11:15 AM,42.8,28.4,57,29.74,10.0,South,9.2,19.6,N/A,,Mostly Cloudy,190,2013-04-15 17:15:00
11:35 AM,41.0,30.2,65,29.74,10.0,South,13.8,21.9,N/A,,Overcast,180,2013-04-15 17:35:00
11:55 AM,41.0,28.4,61,29.72,10.0,SSE,21.9,32.2,N/A,,Mostly Cloudy,160,2013-04-15 17:55:00
12:15 PM,41.0,28.4,61,29.72,10.0,South,12.7,36.8,N/A,,Mostly Cloudy,180,2013-04-15 18:15:00
12:35 PM,42.8,28.4,57,29.72,10.0,South,12.7,28.8,N/A,,Mostly Cloudy,180,2013-04-15 18:35:00
12:55 PM,44.6,26.6,49,29.73,10.0,SSW,10.4,27.6,N/A,,Overcast,210,2013-04-15 18:55:00
1:15 PM,44.6,26.6,49,29.72,10.0,SSE,15.0,29.9,N/A,,Overcast,160,2013-04-15 19:15:00
1:35 PM,42.8,26.6,53,29.72,10.0,South,12.7,35.7,N/A,,Overcast,190,2013-04-15 19:35:00
1:55 PM,44.6,26.6,49,29.72,10.0,SSE,8.1,20.7,N/A,,Overcast,160,2013-04-15 19:55:00
2:15 PM,46.4,26.6,46,29.72,10.0,SSW,15.0,18.4,N/A,,Mostly Cloudy,200,2013-04-15 20:15:00
2:35 PM,48.2,23.0,37,29.71,10.0,WSW,15.0,32.2,N/A,,Mostly Cloudy,240,2013-04-15 20:35:00
2:55 PM,48.2,23.0,37,29.70,10.0,SSW,17.3,29.9,N/A,,Scattered Clouds,200,2013-04-15 20:55:00
3:15 PM,50.0,23.0,35,29.70,10.0,SSW,19.6,34.5,N/A,,Scattered Clouds,200,2013-04-15 21:15:00
3:35 PM,50.0,21.2,32,29.70,10.0,SSW,21.9,38.0,N/A,,Scattered Clouds,210,2013-04-15 21:35:00
4:15 PM,50.0,19.4,30,29.69,10.0,SW,18.4,28.8,N/A,,Clear,230,2013-04-15 22:15:00
4:35 PM,50.0,19.4,30,29.68,10.0,SW,27.6,42.6,N/A,,Scattered Clouds,230,2013-04-15 22:35:00
4:55 PM,50.0,19.4,30,29.69,10.0,SW,23.0,36.8,N/A,,Mostly Cloudy,220,2013-04-15 22:55:00
5:15 PM,50.0,17.6,28,29.69,10.0,SW,19.6,40.3,N/A,,Scattered Clouds,220,2013-04-15 23:15:00
5:35 PM,50.0,14.0,24,29.69,10.0,SSW,20.7,46.0,N/A,,Scattered Clouds,200,2013-04-15 23:35:00
5:55 PM,50.0,17.6,28,29.70,10.0,SW,18.4,29.9,N/A,,Scattered Clouds,230,2013-04-15 23:55:00
6:15 PM,50.0,17.6,28,29.71,10.0,WSW,13.8,25.3,N/A,,Scattered Clouds,240,2013-04-16 00:15:00
6:35 PM,50.0,15.8,26,29.72,10.0,SSW,15.0,36.8,N/A,,Scattered Clouds,210,2013-04-16 00:35:00
6:55 PM,48.2,17.6,30,29.72,10.0,SSW,12.7,19.6,N/A,,Scattered Clouds,210,2013-04-16 00:55:00
7:15 PM,48.2,15.8,27,29.72,10.0,SW,13.8,35.7,N/A,,Scattered Clouds,220,2013-04-16 01:15:00
7:35 PM,48.2,15.8,27,29.72,10.0,SW,20.7,36.8,N/A,,Scattered Clouds,220,2013-04-16 01:35:00
7:55 PM,48.2,17.6,30,29.72,10.0,SSW,12.7,23.0,N/A,,Scattered Clouds,210,2013-04-16 01:55:00
8:35 PM,46.4,17.6,32,29.73,10.0,SSW,11.5,18.4,N/A,,Scattered Clouds,200,2013-04-16 02:35:00
8:55 PM,46.4,17.6,32,29.73,10.0,South,9.2,-,N/A,,Scattered Clouds,190,2013-04-16 02:55:00
9:15 PM,46.4,15.8,29,29.73,10.0,South,9.2,-,N/A,,Scattered Clouds,190,2013-04-16 03:15:00
9:35 PM,46.4,14.0,27,29.73,10.0,SW,11.5,21.9,N/A,,Clear,230,2013-04-16 03:35:00
9:55 PM,46.4,14.0,27,29.73,10.0,SSW,13.8,19.6,N/A,,Clear,210,2013-04-16 03:55:00
10:15 PM,46.4,17.6,32,29.73,10.0,SSW,8.1,-,N/A,,Clear,200,2013-04-16 04:15:00
10:35 PM,44.6,17.6,34,29.74,10.0,South,13.8,25.3,N/A,,Scattered Clouds,170,2013-04-16 04:35:00
10:55 PM,44.6,17.6,34,29.74,10.0,South,10.4,24.2,N/A,,Scattered Clouds,180,2013-04-16 04:55:00
11:15 PM,44.6,19.4,37,29.73,10.0,South,12.7,20.7,N/A,,Mostly Cloudy,180,2013-04-16 05:15:00
11:35 PM,44.6,21.2,39,29.73,10.0,South,15.0,35.7,N/A,,Scattered Clouds,180,2013-04-16 05:35:00
11:55 PM,44.6,21.2,39,29.71,10.0,South,24.2,35.7,N/A,,Scattered Clouds,180,2013-04-16 05:55:00